This is the latest recevied weather packets stored in our database for station/object 1NW106. If no packets are shown the sender has not sent any weather packets the latest 10 day(s).
| Time | Temp. | Humidity | Pressure | Rain* | Wind** | Luminosity | Snow |
|---|---|---|---|---|---|---|---|
| 1787735968 | 30.56° C | 77% | 1005.3 hPa | 14.73 mm | - | - | - |
| 1787735368 | 30° C | 79% | 1004.6 hPa | 14.73 mm | - | - | - |
| 1787734768 | 29.44° C | 88% | 1004.8 hPa | 14.73 mm | - | - | - |
| 1787734168 | 29.44° C | 86% | 1005 hPa | 14.73 mm | - | - | - |
| 1787733568 | 29.44° C | 86% | 1005.2 hPa | 14.73 mm | - | - | - |
| 1787732968 | 29.44° C | 84% | 1004.9 hPa | 14.73 mm | - | - | - |
| 1787732368 | 28.89° C | 89% | 1005.3 hPa | 14.73 mm | - | - | - |
| 1787731768 | 28.89° C | 85% | 1005.3 hPa | 14.73 mm | - | - | - |
| 1787731168 | 29.44° C | 84% | 1005.4 hPa | 14.73 mm | - | - | - |
| 1787730568 | 30° C | 80% | 1005.9 hPa | 14.73 mm | - | - | - |
| 1787729968 | 30° C | 80% | 1006 hPa | 14.73 mm | - | - | - |
| 1787729368 | 28.89° C | 82% | 1006 hPa | 14.73 mm | - | - | - |
| 1787728768 | 28.33° C | 86% | 1005.8 hPa | 14.73 mm | - | - | - |
| 1787728168 | 28.33° C | 89% | 1005.7 hPa | 14.73 mm | - | - | - |
| 1787727568 | 27.78° C | 90% | 1005.7 hPa | 14.73 mm | - | - | - |
| 1787726968 | 28.33° C | 91% | 1005.7 hPa | 14.73 mm | - | - | - |
| 1787726368 | 28.33° C | 95% | 1005.2 hPa | 14.73 mm | - | - | - |
| 1787725768 | 27.78° C | 90% | 1006.2 hPa | 14.73 mm | - | - | - |
| 1787725168 | 27.78° C | 91% | 1006.2 hPa | 14.73 mm | - | - | - |
| 1787724568 | 27.22° C | 94% | 1005.9 hPa | 14.73 mm | - | - | - |
| 1787723968 | 27.22° C | 97% | 1005.6 hPa | 14.73 mm | - | - | - |
| 1787723368 | 27.22° C | 97% | 1005.7 hPa | 13.97 mm | - | - | - |
| 1787722768 | 27.22° C | 99% | 1005.5 hPa | 13.97 mm | - | - | - |
| 1787722168 | 26.67° C | 99% | 1005.5 hPa | 13.97 mm | - | - | - |
| 1787721568 | 26.67° C | 99% | 1004.7 hPa | 13.97 mm | - | - | - |
* Rain latest hour (hover to see other rain measurements)
** Current wind speed in m/s (hover to see current wind gust speed)